| time (UTC) | temp F | wind direction | speed MPH | gust MPH | rain 1hr in | rain 24hr in | rain mn in | humidity % | barometer mb |
| 20260505102046 | 53 | 0 | 0.0 | 0.0 | 0.00 | 0.31 | 0.31 | 97 | 1008.8 |
| 20260505100043 | 53 | 0 | 0.0 | 0.0 | 0.00 | 0.31 | 0.31 | 97 | 1008.8 |
| 20260505095043 | 53 | 0 | 0.0 | 0.0 | 0.00 | 0.31 | 0.31 | 97 | 1008.8 |
| 20260505094043 | 53 | 0 | 0.0 | 0.0 | 0.00 | 0.31 | 0.31 | 97 | 1008.7 |
| 20260505093043 | 53 | 0 | 0.0 | 0.0 | 0.00 | 0.31 | 0.31 | 97 | 1008.7 |
| 20260505091045 | 53 | 0 | 0.0 | 0.0 | 0.00 | 0.31 | 0.31 | 98 | 1008.7 |
| 20260505090045 | 53 | 0 | 0.0 | 0.0 | 0.00 | 0.31 | 0.31 | 98 | 1008.8 |
| 20260505085043 | 53 | 0 | 0.0 | 0.0 | 0.00 | 0.31 | 0.31 | 98 | 1008.7 |
| 20260505084043 | 53 | 0 | 0.0 | 0.0 | 0.01 | 0.31 | 0.31 | 98 | 1008.8 |
| 20260505083045 | 53 | 0 | 0.0 | 0.0 | 0.01 | 0.31 | 0.31 | 98 | 1008.8 |
| 20260505081044 | 53 | 0 | 0.0 | 0.0 | 0.01 | 0.31 | 0.31 | 97 | 1009.0 |
| 20260505080042 | 53 | 0 | 0.0 | 0.0 | 0.01 | 0.31 | 0.31 | 98 | 1008.9 |
| 20260505075043 | 53 | 0 | 0.0 | 0.0 | 0.01 | 0.31 | 0.31 | 98 | 1008.9 |
| 20260505072045 | 53 | 0 | 0.0 | 0.0 | 0.00 | 0.31 | 0.30 | 98 | 1009.0 |
| 20260505071046 | 53 | 0 | 0.0 | 0.0 | 0.00 | 0.31 | 0.30 | 98 | 1009.0 |
| 20260505065044 | 53 | 0 | 0.0 | 0.0 | 0.00 | 0.31 | 0.30 | 99 | 1008.9 |
| 20260505064043 | 53 | 0 | 0.0 | 0.0 | 0.00 | 0.31 | 0.30 | 99 | 1008.9 |
| 20260505063042 | 53 | 0 | 0.0 | 0.0 | 0.00 | 0.31 | 0.30 | 99 | 1008.9 |
| 20260505062044 | 53 | 0 | 0.0 | 0.0 | 0.00 | 0.31 | 0.30 | 99 | 1008.9 |
| 20260505061043 | 53 | 0 | 0.0 | 0.0 | 0.00 | 0.31 | 0.30 | 99 | 1008.9 |
| 20260505060042 | 53 | 0 | 0.0 | 0.0 | 0.00 | 0.31 | 0.30 | 99 | 1009.0 |
| 20260505055044 | 53 | 0 | 0.0 | 0.0 | 0.00 | 0.31 | 0.30 | 99 | 1009.0 |
| 20260505054051 | 53 | 0 | 0.0 | 0.0 | 0.00 | 0.31 | 0.30 | 99 | 1009.0 |
| 20260505053041 | 54 | 0 | 0.0 | 0.0 | 0.01 | 0.31 | 0.30 | 99 | 1009.0 |
| 20260505052044 | 54 | 0 | 0.0 | 0.0 | 0.02 | 0.31 | 0.30 | 98 | 1008.9 |
| 20260505051047 | 54 | 0 | 0.0 | 0.0 | 0.03 | 0.31 | 0.30 | 98 | 1008.9 |
| 20260505041044 | 53 | 0 | 0.0 | 0.0 | 0.18 | 0.28 | 0.28 | 98 | 1009.0 |
| 20260505040045 | 53 | 0 | 0.0 | 0.0 | 0.24 | 0.28 | 0.27 | 98 | 1009.0 |
| 20260505035046 | 53 | 0 | 0.0 | 0.0 | 0.26 | 0.28 | 0.27 | 98 | 1009.1 |
| 20260505034045 | 53 | 0 | 0.0 | 0.0 | 0.25 | 0.27 | 0.26 | 98 | 1009.1 |
| 20260505032047 | 53 | 0 | 0.0 | 0.0 | 0.19 | 0.20 | 0.19 | 98 | 1009.2 |
| 20260505031046 | 53 | 0 | 0.0 | 0.0 | 0.15 | 0.17 | 0.15 | 98 | 1009.3 |
| 20260505030045 | 53 | 0 | 0.0 | 0.0 | 0.09 | 0.11 | 0.09 | 98 | 1009.4 |
| 20260505025044 | 53 | 0 | 0.0 | 0.0 | 0.02 | 0.04 | 0.02 | 98 | 1009.4 |
| 20260505024048 | 54 | 0 | 0.0 | 0.0 | 0.01 | 0.02 | 0.01 | 98 | 1009.5 |
| 20260505023050 | 53 | 0 | 0.0 | 0.0 | 0.01 | 0.02 | 0.01 | 98 | 1009.4 |
| 20260505022045 | 54 | 0 | 0.0 | 0.0 | 0.00 | 0.02 | 0.00 | 98 | 1009.4 |
| 20260505021047 | 54 | 0 | 0.0 | 0.0 | 0.00 | 0.02 | 0.00 | 98 | 1009.5 |
| 20260505020047 | 53 | 0 | 0.0 | 0.0 | 0.00 | 0.02 | 0.00 | 98 | 1009.4 |
| 20260505015045 | 53 | 0 | 0.0 | 0.0 | 0.00 | 0.02 | 0.00 | 98 | 1009.5 |
| 20260505014045 | 54 | 0 | 0.0 | 0.0 | 0.00 | 0.02 | 0.00 | 98 | 1009.5 |
| 20260505013046 | 53 | 0 | 0.0 | 0.0 | 0.00 | 0.02 | 0.00 | 98 | 1009.6 |
| 20260505012045 | 53 | 0 | 0.0 | 0.0 | 0.00 | 0.02 | 0.00 | 98 | 1009.6 |
| 20260505011045 | 53 | 0 | 0.0 | 0.0 | 0.00 | 0.02 | 0.00 | 98 | 1009.6 |
| 20260505010047 | 53 | 0 | 0.0 | 0.0 | 0.00 | 0.02 | 0.00 | 98 | 1009.7 |
| 20260505005047 | 53 | 0 | 0.0 | 0.0 | 0.00 | 0.02 | 0.00 | 98 | 1009.7 |
| 20260505003047 | 53 | 0 | 0.0 | 0.0 | 0.00 | 0.02 | 0.00 | 98 | 1010.0 |
| 20260505002046 | 53 | 0 | 0.0 | 0.0 | 0.00 | 0.02 | 0.00 | 98 | 1010.2 |
| 20260505001047 | 53 | 0 | 0.0 | 0.0 | 0.00 | 0.02 | 0.00 | 98 | 1010.2 |
| 20260505000052 | 53 | 0 | 0.0 | 0.0 | 0.00 | 0.02 | 0.00 | 98 | 1010.2 |
| 20260504235049 | 53 | 0 | 0.0 | 0.0 | 0.00 | 0.02 | 0.00 | 98 | 1010.3 |
| 20260504233049 | 53 | 0 | 0.0 | 0.0 | 0.00 | 0.02 | 0.00 | 98 | 1010.4 |
| 20260504231050 | 53 | 0 | 0.0 | 0.0 | 0.00 | 0.02 | 0.00 | 98 | 1010.6 |
| 20260504225050 | 53 | 0 | 0.0 | 0.0 | 0.00 | 0.02 | 0.00 | 98 | 1010.7 |
| 20260504224050 | 53 | 0 | 0.0 | 0.0 | 0.00 | 0.02 | 0.00 | 97 | 1010.8 |
| 20260504223048 | 52 | 0 | 0.0 | 0.0 | 0.00 | 0.02 | 0.00 | 97 | 1010.9 |
| 20260504222051 | 52 | 0 | 0.0 | 0.0 | 0.00 | 0.02 | 0.00 | 97 | 1011.0 |
| 20260504221050 | 52 | 0 | 0.0 | 0.0 | 0.00 | 0.02 | 0.00 | 97 | 1011.0 |
| 20260504220050 | 52 | 0 | 0.0 | 0.0 | 0.00 | 0.02 | 0.00 | 96 | 1011.1 |
| 20260504215022 | 53 | 0 | 0.0 | 0.0 | 0.00 | 0.02 | 0.02 | 96 | 1011.1 |
| 20260504214049 | 53 | 0 | 0.0 | 0.0 | 0.00 | 0.02 | 0.02 | 96 | 1011.2 |
| 20260504213049 | 54 | 0 | 0.0 | 0.0 | 0.00 | 0.02 | 0.02 | 96 | 1011.3 |
| 20260504212023 | 54 | 0 | 0.0 | 0.0 | 0.00 | 0.02 | 0.02 | 96 | 1011.3 |
| 20260504211020 | 54 | 0 | 0.0 | 0.0 | 0.00 | 0.02 | 0.02 | 95 | 1011.4 |
| 20260504210050 | 54 | 0 | 0.0 | 0.0 | 0.00 | 0.02 | 0.02 | 95 | 1011.4 |
| 20260504203024 | 55 | 0 | 0.0 | 0.0 | 0.00 | 0.02 | 0.02 | 94 | 1011.5 |
| 20260504201036 | 55 | 0 | 0.0 | 0.0 | 0.00 | 0.02 | 0.02 | 93 | 1011.4 |
| 20260504195051 | 56 | 0 | 0.0 | 0.0 | 0.00 | 0.02 | 0.02 | 92 | 1011.3 |
| 20260504193020 | 56 | 0 | 0.0 | 0.0 | 0.00 | 0.02 | 0.02 | 93 | 1011.2 |
| 20260504192025 | 56 | 0 | 0.0 | 0.0 | 0.00 | 0.02 | 0.02 | 94 | 1011.0 |
| 20260504190050 | 56 | 0 | 0.0 | 0.0 | 0.00 | 0.02 | 0.02 | 93 | 1011.0 |
| 20260504185051 | 57 | 0 | 0.0 | 0.0 | 0.00 | 0.02 | 0.02 | 92 | 1010.9 |
| 20260504184046 | 57 | 0 | 0.0 | 0.0 | 0.00 | 0.02 | 0.02 | 91 | 1010.9 |
| 20260504183020 | 58 | 0 | 0.0 | 0.0 | 0.00 | 0.02 | 0.02 | 89 | 1010.8 |
| 20260504181022 | 59 | 0 | 0.0 | 0.0 | 0.00 | 0.02 | 0.02 | 87 | 1010.9 |
| 20260504180021 | 59 | 0 | 0.0 | 0.0 | 0.00 | 0.02 | 0.02 | 87 | 1011.0 |
| 20260504175022 | 59 | 0 | 0.0 | 0.0 | 0.01 | 0.02 | 0.02 | 87 | 1011.1 |
| 20260504174020 | 59 | 0 | 0.0 | 0.0 | 0.01 | 0.02 | 0.02 | 87 | 1011.0 |
| 20260504173023 | 59 | 0 | 0.0 | 0.0 | 0.01 | 0.02 | 0.02 | 87 | 1011.0 |
| 20260504172021 | 59 | 0 | 0.0 | 0.0 | 0.01 | 0.02 | 0.02 | 86 | 1011.0 |
| 20260504171021 | 59 | 0 | 0.0 | 0.0 | 0.01 | 0.02 | 0.02 | 88 | 1010.9 |